Regional Weather Roundup
Issued by NWS

Home | Current Version | Previous Version | Text Only | Print | Product List | Glossary Off
Versions: 1 2 3 4 5 6 7 8 9 10 11 12 13 14 15 16 17 18 19 20 21 22 23 24 25 26 27 28 29 30 31 32 33 34 35 36 37 38 39 40 41 42 43 44 45 46 47 48 49 50

000
ASUS44 KMEG 280700
RWRTN
TENNESSEE HOURLY STATE WEATHER ROUNDUP
NATIONAL WEATHER SERVICE MEMPHIS TN
200 AM CDT MON JUL 28 2014

TNZ002-004-019-021-049-052-054-088>092-280800-
WEST TENNESSEE

CITY           SKY/WX    TMP DP  RH WIND       PRES   REMARKS
MEMPHIS INTL   PTCLDY    82  70  66 N9        29.96S
NWS MEMPHIS      N/A     80 N/A N/A MISG        N/A
JACKSON        CLEAR     77  71  82 N7        29.95S
DYERSBURG      CLEAR     73  57  56 N9        29.98R
UNION CITY     CLEAR     70  63  78 VRB6      29.97R
PARIS          CLEAR     70  61  73 N5        29.98R
LEXINGTON      CLEAR     75  68  78 CALM      29.94R
SAVANNAH       CLEAR     79  79 100 CALM      29.94S
$$

TNZ008-025-027-028-033-062-065-066-280800-
NORTH MIDDLE TENNESSEE

CITY           SKY/WX    TMP DP  RH WIND       PRES   REMARKS
NASHVILLE      CLEAR     75  70  84 NW5       29.94R
CLARKSVILLE    CLEAR     72  59  63 N12       29.95R
COOKEVILLE     PTCLDY    70  70 100 CALM      29.94S
CROSSVILLE     LGT RAIN  69  67  93 SW6       29.98R
$$

TNZ061-075-076-078-094-096-097-280800-
SOUTH MIDDLE TENNESSEE

CITY           SKY/WX    TMP DP  RH WIND       PRES   REMARKS
FAYETTEVILLE   PTCLDY    77  73  88 W7        29.94S
TULLAHOMA      PTCLDY    73  70  88 NW6       29.96R
WINCHESTER     CLOUDY    73  70  88 CALM      29.96R
MCMINNVILLE    MOCLDY    72  72 100 CALM      29.95S
COLUMBIA       MOCLDY    79  73  83 CALM      29.94R
SHELBYVILLE    PTCLDY    75  72  88 NW3       29.95S
$$

TNZ017-018-042-046-047-280800-
NORTHEAST TENNESSEE

CITY           SKY/WX    TMP DP  RH WIND       PRES   REMARKS
TRI CITIES     CLOUDY    68  65  90 W7        29.91S
ELIZABETHTON   PTSUNNY   64  64 100 CALM        N/A
$$

TNZ012-013-036-069-073-074-280800-
CENTRAL EAST TENNESSEE

CITY           SKY/WX    TMP DP  RH WIND       PRES   REMARKS
KNOXVILLE      CLOUDY    71  70  96 S6        29.91S
OAK RIDGE      MOCLDY    71  70  96 CALM      29.93R
GATLINBURG     CLOUDY    68  66  94 CALM      29.92S
$$

TNZ083-085-099-280800-
SOUTHEAST TENNESSEE

CITY           SKY/WX    TMP DP  RH WIND       PRES   REMARKS
CHATTANOOGA    CLOUDY    72  69  90 W7        29.94F
$$

SKY/WX REPORTED AS FAIR MEANS FEW OR NO CLOUDS BELOW
12 THOUSAND FEET.



USA.gov is the U.S. government's official web portal to all federal, state and local government web resources and services.